sat.trackr.live / text

‹ back to catalog

STARLINK-6154

NORAD 57123 · 2023-090Y

PAYLOAD ACTIVE UNKNOWN

§ Identity

Operator
Country
US
Launch date
2023-06-23
Launch site
AFETR
Launch vehicle
Mass (kg)
RCS (m²)

Purposes: comms

External: N2YO · Heavens-Above · Gunter

§ Orbital elements

Epoch: 2026-09-20T16:20:56.059296Z

Period
94.27 min
Inclination
43.0013°
Eccentricity
0.0001234
Mean motion
15.27576948 rev/d
Perigee alt
482.2 km
Apogee alt
483.9 km
Semi-major
6,861.2 km
B*
3.6340e-5
RAAN
260.3570°
Arg perigee
271.4176°
Mean anomaly
88.6534°
Rev number
17,996

§ Raw data

STARLINK-61541 57123U 23090Y   26263.68120439  .00000738  00000+0  36340-4 0  99912 57123  43.0013 260.3570 0001234 271.4176  88.6534 15.27576948179962

JSON: /api/v1/satellites/57123 · /tle

For live sub-satellite position, see the globe view (requires WebGL).

§ Visibility from observer

Set your observer location to see the next 7 days of passes ≥ 10°. The values pass through the URL so the page stays shareable.

No JS? Fill the form by hand. The geolocation button needs JavaScript.